| time (UTC) | temp F | wind direction | speed knots | gust knots | rain 1hr in | rain 24hr in | rain mn in | humidity % | barometer mb |
| 20260505123505 | 56 | 156 | 0.9 | 7.0 | 0.01 | 0.30 | 0.28 | 86 | 1005.9 |
| 20260505123004 | 56 | 144 | 1.7 | 2.6 | 0.01 | 0.30 | 0.28 | 86 | 1006.2 |
| 20260505122504 | 55 | 199 | 0.9 | 2.6 | 0.02 | 0.30 | 0.28 | 86 | 1006.3 |
| 20260505122004 | 55 | 200 | 1.7 | 5.2 | 0.02 | 0.30 | 0.28 | 86 | 1006.4 |
| 20260505121505 | 55 | 216 | 1.7 | 4.3 | 0.02 | 0.30 | 0.28 | 86 | 1006.4 |
| 20260505121004 | 55 | 234 | 1.7 | 5.2 | 0.03 | 0.30 | 0.28 | 86 | 1006.3 |
| 20260505120504 | 55 | 130 | 2.6 | 7.8 | 0.03 | 0.30 | 0.28 | 86 | 1005.8 |
| 20260505120005 | 55 | 122 | 0.9 | 2.6 | 0.03 | 0.30 | 0.28 | 86 | 1006.3 |
| 20260505115506 | 55 | 180 | 0.9 | 4.3 | 0.03 | 0.30 | 0.28 | 86 | 1006.7 |
| 20260505115004 | 55 | 189 | 1.7 | 4.3 | 0.03 | 0.30 | 0.28 | 86 | 1006.8 |
| 20260505114505 | 55 | 193 | 2.6 | 5.2 | 0.03 | 0.30 | 0.28 | 86 | 1006.8 |
| 20260505114005 | 55 | 201 | 1.7 | 5.2 | 0.03 | 0.30 | 0.28 | 86 | 1006.9 |
| 20260505113504 | 55 | 226 | 1.7 | 2.6 | 0.02 | 0.29 | 0.27 | 86 | 1006.8 |
| 20260505113004 | 55 | 202 | 0.9 | 2.6 | 0.02 | 0.29 | 0.27 | 86 | 1006.8 |
| 20260505112505 | 55 | 202 | 1.7 | 2.6 | 0.01 | 0.28 | 0.26 | 86 | 1006.8 |
| 20260505112005 | 55 | 201 | 1.7 | 2.6 | 0.01 | 0.28 | 0.26 | 86 | 1006.5 |
| 20260505111504 | 55 | 201 | 1.7 | 2.6 | 0.01 | 0.28 | 0.26 | 86 | 1006.4 |
| 20260505111004 | 55 | 201 | 0.9 | 2.6 | 0.01 | 0.27 | 0.25 | 86 | 1006.2 |
| 20260505110504 | 55 | 178 | 0.9 | 1.7 | 0.01 | 0.27 | 0.25 | 86 | 1006.2 |
| 20260505102004 | 56 | 229 | 0.9 | 2.6 | 0.10 | 0.27 | 0.25 | 86 | 1006.2 |
| 20260505101505 | 56 | 229 | 0.0 | 1.7 | 0.13 | 0.27 | 0.25 | 86 | 1006.4 |
| 20260505101004 | 56 | 229 | 0.0 | 0.9 | 0.14 | 0.26 | 0.24 | 86 | 1006.6 |
| 20260505100504 | 56 | 229 | 0.9 | 1.7 | 0.17 | 0.26 | 0.24 | 86 | 1006.6 |
| 20260505100004 | 56 | 229 | 0.9 | 1.7 | 0.18 | 0.26 | 0.24 | 86 | 1006.5 |
| 20260505095004 | 56 | 232 | 0.9 | 2.6 | 0.19 | 0.25 | 0.23 | 86 | 1007.0 |
| 20260505094505 | 56 | 234 | 0.0 | 2.6 | 0.20 | 0.25 | 0.23 | 86 | 1007.4 |
| 20260505093504 | 57 | 340 | 1.7 | 2.6 | 0.20 | 0.23 | 0.21 | 85 | 1007.3 |
| 20260505093004 | 57 | 308 | 0.9 | 2.6 | 0.18 | 0.21 | 0.19 | 85 | 1007.5 |
| 20260505092504 | 57 | 342 | 0.9 | 2.6 | 0.15 | 0.18 | 0.16 | 85 | 1007.6 |
| 20260505092004 | 57 | 325 | 2.6 | 7.0 | 0.14 | 0.17 | 0.15 | 85 | 1007.5 |
| 20260505091504 | 58 | 325 | 3.5 | 7.8 | 0.11 | 0.14 | 0.12 | 84 | 1007.5 |
| 20260505091005 | 58 | 326 | 3.5 | 10.4 | 0.09 | 0.12 | 0.10 | 84 | 1007.5 |
| 20260505090504 | 58 | 322 | 3.5 | 7.8 | 0.06 | 0.09 | 0.07 | 83 | 1007.5 |
| 20260505090004 | 58 | 323 | 0.9 | 4.3 | 0.05 | 0.08 | 0.06 | 83 | 1007.3 |
| 20260505085504 | 59 | 331 | 1.7 | 7.0 | 0.04 | 0.07 | 0.05 | 82 | 1007.2 |
| 20260505085005 | 59 | 306 | 0.9 | 2.6 | 0.03 | 0.06 | 0.04 | 81 | 1007.1 |
| 20260505084505 | 59 | 315 | 1.7 | 4.3 | 0.02 | 0.05 | 0.03 | 81 | 1006.9 |
| 20260505084004 | 60 | 342 | 2.6 | 7.0 | 0.01 | 0.04 | 0.02 | 80 | 1006.4 |
| 20260505083504 | 60 | 5 | 1.7 | 4.3 | 0.00 | 0.03 | 0.01 | 79 | 1006.3 |
| 20260505083005 | 60 | 301 | 0.9 | 5.2 | 0.00 | 0.03 | 0.01 | 78 | 1006.0 |
| 20260505082504 | 61 | 298 | 7.8 | 14.8 | 0.00 | 0.03 | 0.01 | 77 | 1006.4 |
| 20260505081504 | 61 | 296 | 0.0 | 1.7 | 0.00 | 0.03 | 0.01 | 74 | 1005.4 |
| 20260505081004 | 62 | 296 | 0.9 | 1.7 | 0.00 | 0.03 | 0.01 | 73 | 1005.2 |
| 20260505080505 | 63 | 296 | 0.9 | 1.7 | 0.00 | 0.03 | 0.01 | 72 | 1004.9 |
| 20260505080005 | 64 | 296 | 0.0 | 0.9 | 0.00 | 0.03 | 0.01 | 68 | 1004.5 |
| 20260505075504 | 64 | 296 | 0.0 | 0.9 | 0.00 | 0.03 | 0.01 | 67 | 1004.5 |
| 20260505075005 | 64 | 296 | 0.9 | 5.2 | 0.00 | 0.03 | 0.01 | 66 | 1004.8 |
| 20260505074504 | 65 | 22 | 1.7 | 2.6 | 0.00 | 0.03 | 0.01 | 64 | 1004.9 |
| 20260505074004 | 65 | 340 | 1.7 | 5.2 | 0.00 | 0.03 | 0.01 | 64 | 1005.3 |
| 20260505073504 | 65 | 258 | 0.9 | 2.6 | 0.00 | 0.03 | 0.01 | 63 | 1005.3 |
| 20260505072505 | 65 | 226 | 1.7 | 2.6 | 0.00 | 0.03 | 0.01 | 62 | 1005.0 |
| 20260505072004 | 65 | 231 | 1.7 | 6.1 | 0.00 | 0.03 | 0.01 | 62 | 1005.0 |
| 20260505071504 | 65 | 254 | 2.6 | 5.2 | 0.00 | 0.03 | 0.01 | 61 | 1005.0 |
| 20260505065504 | 66 | 217 | 2.6 | 7.0 | 0.00 | 0.03 | 0.01 | 60 | 1004.8 |
| 20260505065004 | 66 | 202 | 4.3 | 7.8 | 0.00 | 0.03 | 0.01 | 60 | 1004.8 |
| 20260505064504 | 66 | 188 | 3.5 | 8.7 | 0.00 | 0.03 | 0.01 | 60 | 1004.8 |
| 20260505064005 | 66 | 199 | 4.3 | 10.4 | 0.00 | 0.03 | 0.01 | 59 | 1004.7 |
| 20260505063004 | 67 | 217 | 5.2 | 10.4 | 0.00 | 0.03 | 0.01 | 59 | 1004.7 |
| 20260505062504 | 67 | 185 | 4.3 | 10.4 | 0.00 | 0.03 | 0.01 | 59 | 1004.4 |
| 20260505061505 | 67 | 198 | 6.1 | 11.3 | 0.00 | 0.03 | 0.01 | 59 | 1004.1 |
| 20260505061004 | 67 | 212 | 4.3 | 10.4 | 0.00 | 0.03 | 0.01 | 59 | 1004.1 |
| 20260505060505 | 66 | 192 | 5.2 | 12.2 | 0.00 | 0.03 | 0.01 | 59 | 1004.2 |
| 20260505060004 | 66 | 190 | 3.5 | 10.4 | 0.00 | 0.03 | 0.01 | 59 | 1004.2 |
| 20260505055505 | 66 | 234 | 4.3 | 11.3 | 0.00 | 0.03 | 0.01 | 59 | 1004.1 |
| 20260505055004 | 66 | 198 | 5.2 | 10.4 | 0.00 | 0.03 | 0.01 | 59 | 1004.1 |
| 20260505054505 | 67 | 231 | 4.3 | 10.4 | 0.00 | 0.03 | 0.01 | 59 | 1004.1 |
| 20260505054004 | 67 | 198 | 3.5 | 7.0 | 0.00 | 0.03 | 0.01 | 58 | 1004.0 |
| 20260505053005 | 67 | 204 | 7.0 | 17.4 | 0.00 | 0.03 | 0.01 | 59 | 1003.7 |
| 20260505052504 | 67 | 179 | 4.3 | 12.2 | 0.00 | 0.03 | 0.01 | 58 | 1003.7 |
| 20260505052005 | 67 | 196 | 5.2 | 13.0 | 0.00 | 0.03 | 0.01 | 58 | 1003.7 |
| 20260505051504 | 67 | 185 | 4.3 | 11.3 | 0.00 | 0.03 | 0.01 | 58 | 1003.6 |
| 20260505051004 | 67 | 217 | 3.5 | 7.8 | 0.00 | 0.03 | 0.01 | 59 | 1003.6 |
| 20260505050505 | 67 | 205 | 5.2 | 11.3 | 0.01 | 0.03 | 0.01 | 59 | 1003.6 |
| 20260505041504 | 66 | 206 | 5.2 | 13.9 | 0.01 | 0.03 | 0.01 | 65 | 1003.8 |
| 20260505041005 | 67 | 204 | 5.2 | 12.2 | 0.01 | 0.03 | 0.01 | 63 | 1003.8 |
| 20260505040504 | 67 | 172 | 6.1 | 12.2 | 0.00 | 0.02 | 0.00 | 59 | 1003.7 |
| 20260505040005 | 67 | 202 | 6.1 | 13.9 | 0.00 | 0.02 | 0.00 | 60 | 1004.1 |
| 20260505035505 | 66 | 212 | 4.3 | 7.8 | 0.00 | 0.02 | 0.02 | 61 | 1004.3 |
| 20260505035004 | 66 | 190 | 5.2 | 10.4 | 0.00 | 0.02 | 0.02 | 62 | 1004.3 |
| 20260505034504 | 66 | 219 | 2.6 | 7.8 | 0.00 | 0.02 | 0.02 | 63 | 1004.3 |
| 20260505034004 | 66 | 190 | 4.3 | 10.4 | 0.00 | 0.02 | 0.02 | 63 | 1004.3 |
| 20260505033505 | 66 | 198 | 3.5 | 7.8 | 0.00 | 0.02 | 0.02 | 64 | 1004.3 |
| 20260505033004 | 66 | 220 | 2.6 | 5.2 | 0.00 | 0.02 | 0.02 | 63 | 1004.4 |
| 20260505032004 | 66 | 182 | 1.7 | 5.2 | 0.00 | 0.02 | 0.02 | 63 | 1004.5 |
| 20260505031505 | 66 | 153 | 3.5 | 7.0 | 0.00 | 0.02 | 0.02 | 62 | 1004.5 |
| 20260505031005 | 66 | 226 | 2.6 | 4.3 | 0.00 | 0.02 | 0.02 | 63 | 1004.5 |
| 20260505030504 | 66 | 212 | 2.6 | 7.0 | 0.00 | 0.02 | 0.02 | 62 | 1004.5 |
| 20260505030004 | 67 | 215 | 1.7 | 7.0 | 0.00 | 0.02 | 0.02 | 62 | 1004.5 |
| 20260505025504 | 67 | 195 | 1.7 | 2.6 | 0.00 | 0.02 | 0.02 | 62 | 1004.4 |
| 20260505025004 | 67 | 197 | 2.6 | 5.2 | 0.00 | 0.02 | 0.02 | 62 | 1004.4 |
| 20260505024505 | 67 | 227 | 1.7 | 7.0 | 0.00 | 0.02 | 0.02 | 61 | 1004.4 |
| 20260505023504 | 67 | 215 | 1.7 | 5.2 | 0.00 | 0.02 | 0.02 | 61 | 1004.3 |
| 20260505023004 | 67 | 199 | 2.6 | 4.3 | 0.00 | 0.02 | 0.02 | 61 | 1004.2 |
| 20260505022004 | 67 | 186 | 2.6 | 4.3 | 0.00 | 0.02 | 0.02 | 61 | 1004.0 |
| 20260505021504 | 67 | 222 | 1.7 | 5.2 | 0.00 | 0.02 | 0.02 | 61 | 1003.9 |
| 20260505021005 | 67 | 174 | 2.6 | 7.0 | 0.00 | 0.02 | 0.02 | 61 | 1003.9 |
| 20260505020504 | 67 | 224 | 2.6 | 7.0 | 0.00 | 0.02 | 0.02 | 62 | 1003.8 |
| 20260505020004 | 67 | 237 | 3.5 | 6.1 | 0.00 | 0.02 | 0.02 | 62 | 1003.6 |
| 20260505015004 | 67 | 195 | 1.7 | 2.6 | 0.00 | 0.02 | 0.02 | 63 | 1003.4 |
| 20260505014504 | 67 | 195 | 1.7 | 4.3 | 0.00 | 0.02 | 0.02 | 62 | 1003.3 |
| 20260505013504 | 67 | 209 | 0.9 | 6.1 | 0.00 | 0.02 | 0.02 | 62 | 1003.2 |
| 20260505013005 | 67 | 203 | 1.7 | 4.3 | 0.00 | 0.02 | 0.02 | 61 | 1003.2 |
| 20260505012504 | 68 | 191 | 0.9 | 2.6 | 0.00 | 0.02 | 0.02 | 61 | 1003.2 |
| 20260505012004 | 68 | 188 | 0.9 | 2.6 | 0.00 | 0.02 | 0.02 | 60 | 1003.2 |
| 20260505011504 | 69 | 281 | 0.9 | 5.2 | 0.00 | 0.02 | 0.02 | 59 | 1003.2 |
| 20260505011005 | 69 | 221 | 1.7 | 6.1 | 0.00 | 0.02 | 0.02 | 59 | 1003.1 |
| 20260505010504 | 69 | 212 | 2.6 | 7.0 | 0.00 | 0.02 | 0.02 | 59 | 1003.1 |
| 20260505010004 | 69 | 219 | 2.6 | 5.2 | 0.00 | 0.02 | 0.02 | 58 | 1003.1 |
| 20260505005504 | 69 | 190 | 1.7 | 5.2 | 0.00 | 0.02 | 0.02 | 58 | 1003.1 |
| 20260505004504 | 70 | 202 | 2.6 | 6.1 | 0.00 | 0.02 | 0.02 | 56 | 1003.2 |
| 20260505004004 | 70 | 240 | 1.7 | 7.0 | 0.00 | 0.02 | 0.02 | 56 | 1003.3 |
| 20260505003505 | 70 | 194 | 2.6 | 6.1 | 0.00 | 0.02 | 0.02 | 56 | 1003.3 |
| 20260505003005 | 71 | 177 | 2.6 | 7.0 | 0.00 | 0.02 | 0.02 | 55 | 1003.2 |
| 20260505002504 | 71 | 194 | 3.5 | 11.3 | 0.00 | 0.02 | 0.02 | 55 | 1003.2 |
| 20260505002004 | 71 | 229 | 2.6 | 7.8 | 0.00 | 0.02 | 0.02 | 55 | 1003.2 |
| 20260505001504 | 71 | 171 | 2.6 | 7.0 | 0.00 | 0.02 | 0.02 | 56 | 1003.2 |
| 20260505001005 | 71 | 202 | 3.5 | 7.0 | 0.00 | 0.02 | 0.02 | 57 | 1003.2 |
| 20260505000004 | 71 | 217 | 2.6 | 7.0 | 0.00 | 0.02 | 0.02 | 56 | 1003.3 |
| 20260504235504 | 71 | 211 | 4.3 | 7.8 | 0.00 | 0.02 | 0.02 | 55 | 1003.4 |
| 20260504235004 | 72 | 182 | 2.6 | 8.7 | 0.00 | 0.02 | 0.02 | 56 | 1003.5 |
| 20260504234505 | 72 | 205 | 4.3 | 8.7 | 0.00 | 0.02 | 0.02 | 54 | 1003.6 |
| 20260504234005 | 72 | 227 | 2.6 | 7.0 | 0.00 | 0.02 | 0.02 | 54 | 1003.6 |
| 20260504233504 | 73 | 194 | 2.6 | 6.1 | 0.00 | 0.02 | 0.02 | 54 | 1003.7 |
| 20260504233004 | 73 | 220 | 3.5 | 10.4 | 0.00 | 0.02 | 0.02 | 53 | 1003.7 |
| 20260504232504 | 73 | 192 | 3.5 | 7.0 | 0.00 | 0.02 | 0.02 | 52 | 1003.8 |
| 20260504231004 | 74 | 190 | 2.6 | 10.4 | 0.00 | 0.02 | 0.02 | 51 | 1004.1 |
| 20260504230504 | 73 | 221 | 6.1 | 12.2 | 0.00 | 0.02 | 0.02 | 50 | 1004.2 |
| 20260504225505 | 73 | 216 | 5.2 | 13.9 | 0.00 | 0.02 | 0.02 | 51 | 1004.3 |
| 20260504225004 | 73 | 203 | 4.3 | 10.4 | 0.00 | 0.02 | 0.02 | 50 | 1004.3 |
| 20260504224505 | 73 | 209 | 4.3 | 12.2 | 0.00 | 0.02 | 0.02 | 50 | 1004.3 |
| 20260504224004 | 74 | 192 | 8.7 | 15.6 | 0.00 | 0.02 | 0.02 | 48 | 1004.2 |
| 20260504223505 | 74 | 193 | 6.1 | 18.2 | 0.00 | 0.02 | 0.02 | 48 | 1004.3 |
| 20260504223004 | 74 | 200 | 4.3 | 18.2 | 0.00 | 0.02 | 0.02 | 49 | 1004.4 |
| 20260504222004 | 74 | 207 | 5.2 | 17.4 | 0.00 | 0.02 | 0.02 | 49 | 1004.4 |
| 20260504221004 | 73 | 249 | 3.5 | 10.4 | 0.00 | 0.02 | 0.02 | 57 | 1004.5 |
| 20260504220504 | 73 | 153 | 0.9 | 2.6 | 0.00 | 0.02 | 0.02 | 59 | 1004.5 |
| 20260504220004 | 73 | 148 | 0.9 | 2.6 | 0.00 | 0.02 | 0.02 | 55 | 1004.5 |
| 20260504215504 | 73 | 210 | 0.9 | 2.6 | 0.00 | 0.02 | 0.02 | 55 | 1004.6 |
| 20260504214004 | 72 | 198 | 0.9 | 5.2 | 0.00 | 0.02 | 0.02 | 57 | 1004.5 |
| 20260504213505 | 72 | 207 | 2.6 | 5.2 | 0.00 | 0.02 | 0.02 | 55 | 1004.4 |
| 20260504213004 | 72 | 204 | 0.9 | 4.3 | 0.00 | 0.02 | 0.02 | 56 | 1004.5 |
| 20260504212504 | 72 | 214 | 0.9 | 4.3 | 0.00 | 0.02 | 0.02 | 55 | 1004.6 |
| 20260504212004 | 72 | 204 | 1.7 | 7.0 | 0.00 | 0.02 | 0.02 | 54 | 1004.7 |
| 20260504211504 | 72 | 221 | 5.2 | 7.8 | 0.00 | 0.02 | 0.02 | 53 | 1004.9 |
| 20260504211005 | 72 | 187 | 3.5 | 7.8 | 0.00 | 0.02 | 0.02 | 53 | 1005.3 |
| 20260504205005 | 72 | 223 | 4.3 | 10.4 | 0.00 | 0.02 | 0.02 | 54 | 1005.7 |
| 20260504204004 | 72 | 207 | 5.2 | 10.4 | 0.00 | 0.02 | 0.02 | 55 | 1005.8 |
| 20260504203504 | 72 | 228 | 3.5 | 8.7 | 0.00 | 0.02 | 0.02 | 54 | 1005.9 |
| 20260504203004 | 72 | 233 | 4.3 | 13.9 | 0.00 | 0.02 | 0.02 | 58 | 1005.8 |
| 20260504202504 | 72 | 203 | 5.2 | 10.4 | 0.00 | 0.02 | 0.02 | 57 | 1005.8 |
| 20260504201505 | 71 | 208 | 5.2 | 10.4 | 0.00 | 0.02 | 0.02 | 61 | 1005.9 |
| 20260504201004 | 71 | 251 | 6.1 | 11.3 | 0.01 | 0.02 | 0.02 | 60 | 1005.9 |
| 20260504200005 | 70 | 224 | 5.2 | 11.3 | 0.01 | 0.02 | 0.02 | 64 | 1006.3 |
| 20260504195504 | 69 | 225 | 1.7 | 5.2 | 0.01 | 0.02 | 0.02 | 70 | 1006.3 |
| 20260504195005 | 68 | 233 | 5.2 | 8.7 | 0.01 | 0.02 | 0.02 | 67 | 1006.5 |
| 20260504194504 | 68 | 225 | 4.3 | 8.7 | 0.01 | 0.02 | 0.02 | 68 | 1006.4 |
| 20260504194004 | 67 | 206 | 4.3 | 10.4 | 0.02 | 0.02 | 0.02 | 71 | 1006.5 |
| 20260504193505 | 67 | 195 | 1.7 | 6.1 | 0.02 | 0.02 | 0.02 | 73 | 1006.5 |
| 20260504193005 | 66 | 208 | 4.3 | 7.8 | 0.02 | 0.02 | 0.02 | 74 | 1006.6 |
| 20260504192505 | 65 | 155 | 2.6 | 5.2 | 0.02 | 0.02 | 0.02 | 78 | 1006.6 |
| 20260504192004 | 64 | 178 | 0.9 | 2.6 | 0.02 | 0.02 | 0.02 | 78 | 1006.7 |
| 20260504191504 | 64 | 219 | 1.7 | 4.3 | 0.02 | 0.02 | 0.02 | 78 | 1006.9 |
| 20260504191004 | 63 | 249 | 1.7 | 5.2 | 0.01 | 0.01 | 0.01 | 78 | 1006.9 |
| 20260504190505 | 63 | 204 | 1.7 | 4.3 | 0.01 | 0.01 | 0.01 | 77 | 1007.0 |
| 20260504190005 | 63 | 202 | 4.3 | 7.0 | 0.01 | 0.01 | 0.01 | 77 | 1007.1 |
| 20260504185504 | 63 | 213 | 4.3 | 7.0 | 0.01 | 0.01 | 0.01 | 76 | 1007.0 |
| 20260504185005 | 63 | 143 | 1.7 | 2.6 | 0.01 | 0.01 | 0.01 | 76 | 1006.7 |
| 20260504184504 | 63 | 276 | 1.7 | 5.2 | 0.01 | 0.01 | 0.01 | 75 | 1007.7 |
| 20260504184004 | 64 | 189 | 2.6 | 7.0 | 0.00 | 0.00 | 0.00 | 73 | 1007.5 |
| 20260504183004 | 65 | 190 | 2.6 | 6.1 | 0.00 | 0.00 | 0.00 | 70 | 1007.2 |
| 20260504182504 | 65 | 188 | 2.6 | 6.1 | 0.00 | 0.00 | 0.00 | 69 | 1007.4 |
| 20260504182004 | 66 | 194 | 3.5 | 8.7 | 0.00 | 0.00 | 0.00 | 67 | 1007.7 |
| 20260504181505 | 66 | 206 | 3.5 | 8.7 | 0.00 | 0.00 | 0.00 | 66 | 1007.6 |
| 20260504181005 | 66 | 222 | 4.3 | 10.4 | 0.00 | 0.00 | 0.00 | 66 | 1007.3 |
| 20260504180504 | 66 | 210 | 2.6 | 7.0 | 0.00 | 0.00 | 0.00 | 66 | 1007.2 |
| 20260504180005 | 66 | 206 | 4.3 | 10.4 | 0.00 | 0.00 | 0.00 | 65 | 1007.3 |
| 20260504175504 | 67 | 223 | 5.2 | 13.0 | 0.00 | 0.00 | 0.00 | 65 | 1007.4 |
| 20260504175005 | 67 | 196 | 6.1 | 14.8 | 0.00 | 0.00 | 0.00 | 63 | 1007.2 |
| 20260504174504 | 67 | 213 | 4.3 | 7.8 | 0.00 | 0.00 | 0.00 | 64 | 1007.0 |
| 20260504174005 | 67 | 187 | 5.2 | 10.4 | 0.00 | 0.00 | 0.00 | 63 | 1007.0 |
| 20260504173004 | 68 | 196 | 5.2 | 10.4 | 0.00 | 0.00 | 0.00 | 64 | 1006.7 |
| 20260504172504 | 68 | 218 | 4.3 | 11.3 | 0.00 | 0.00 | 0.00 | 64 | 1006.7 |
| 20260504172005 | 68 | 215 | 6.1 | 10.4 | 0.00 | 0.00 | 0.00 | 63 | 1006.6 |
| 20260504171005 | 68 | 147 | 4.3 | 13.0 | 0.00 | 0.00 | 0.00 | 66 | 1006.5 |
| 20260504170504 | 68 | 145 | 4.3 | 13.0 | 0.00 | 0.00 | 0.00 | 67 | 1006.5 |
| 20260504151004 | 63 | 226 | 2.6 | 6.1 | 0.00 | 0.00 | 0.00 | 69 | 1007.5 |
| 20260504150504 | 63 | 213 | 2.6 | 7.0 | 0.00 | 0.00 | 0.00 | 69 | 1007.4 |
| 20260504141005 | 60 | 229 | 4.3 | 11.3 | 0.00 | 0.00 | 0.00 | 71 | 1007.6 |
| 20260504140504 | 59 | 183 | 1.7 | 10.4 | 0.00 | 0.00 | 0.00 | 73 | 1007.7 |
| 20260504130504 | 55 | 206 | 1.7 | 5.2 | 0.00 | 0.00 | 0.00 | 77 | 1007.9 |